GFSMA_sfc_wetblb_123.txt.gz
Wetbulb
63.07 63.15 61.59 59.84 58.15 54.67 54.27 53.70 54.70 55.00 54.44 55.71 57.99 57.81 57.20 56.76 56.83 58.27 60.06 65.99 66.03 64.97 64.92 64.89 64.49 64.15 63.84 63.54 63.41 63.16 63.07 62.97 62.92 63.00 63.12 63.18 63.17 63.50 64.35 65.25 66.35 66.88 67.64
61.11 61.40 61.39 58.45 53.85 50.65 52.05 53.78 52.87 51.66 51.35 55.26 55.93 57.20 56.83 56.61 55.36 55.90 57.28 61.00 65.38 64.72 64.09 63.98 63.81 63.61 63.13 62.77 62.51 62.26 62.02 61.96 61.78 61.62 61.61 61.81 62.04 62.13 62.30 62.59 63.42 64.42 65.69
58.82 57.87 57.23 50.95 49.95 51.02 52.39 50.67 49.72 50.24 50.62 51.35 50.36 53.95 55.36 54.52 54.73 53.83 54.11 54.83 57.21 64.12 63.91 62.87 62.65 62.59 62.44 62.05 61.73 61.30 61.15 61.00 60.87 60.68 60.52 60.41 60.35 60.58 60.84 61.34 61.78 62.03 62.90
57.81 55.40 53.10 50.58 50.27 50.03 50.30 49.75 50.06 49.23 48.87 48.74 48.01 50.63 53.44 53.58 53.00 52.95 53.18 53.36 54.13 55.31 60.17 63.06 61.49 61.77 61.62 61.37 61.15 60.74 60.21 59.93 59.64 59.44 59.19 59.11 59.16 59.30 59.27 59.56 60.37 60.88 61.18
56.85 54.60 52.56 50.83 50.29 50.41 50.11 50.91 49.27 49.55 47.75 47.71 48.81 47.61 47.71 49.79 51.66 53.47 51.25 51.84 52.84 52.54 52.94 61.19 60.65 61.43 60.59 60.44 60.31 59.98 59.53 59.26 58.81 58.37 57.95 57.73 57.83 58.09 58.41 58.27 58.38 59.30 59.96
54.64 52.65 51.24 50.26 50.80 50.37 49.53 49.60 49.50 48.76 48.24 48.01 51.37 48.96 47.44 47.63 47.86 48.71 49.14 51.10 51.10 49.56 50.26 52.31 51.63 55.60 59.26 59.38 59.27 59.08 58.99 58.64 57.73 57.05 56.76 56.81 56.99 57.31 57.78 58.05 58.04 57.77 58.14
52.38 51.33 49.88 50.70 51.11 50.54 50.37 50.13 49.03 48.72 47.43 46.73 46.98 46.07 46.27 46.48 47.04 47.77 47.78 48.18 49.52 49.48 48.66 50.28 49.53 49.87 52.89 57.13 56.77 57.01 57.46 57.23 56.29 55.79 55.75 55.96 56.02 56.08 56.53 56.72 56.90 58.14 56.57
51.68 51.60 50.37 50.75 51.09 50.67 50.87 50.75 50.58 48.44 47.96 46.96 45.67 44.49 42.67 45.42 45.73 46.49 46.22 48.95 47.83 48.88 49.13 49.48 49.08 48.80 48.82 46.48 50.23 54.17 53.91 54.52 54.69 54.41 54.38 54.64 54.91 55.18 55.31 55.49 55.82 56.37 57.27
52.50 51.35 50.95 51.28 50.97 51.27 50.90 52.08 51.54 50.89 47.89 48.04 49.01 47.13 43.59 42.44 43.13 45.63 45.47 46.11 46.71 46.61 46.81 47.44 46.78 48.32 47.57 45.90 50.65 51.05 52.17 51.88 52.24 52.98 53.43 53.60 53.85 54.01 54.26 54.41 54.94 55.26 55.73
50.62 50.49 51.26 51.52 52.26 52.37 52.36 52.72 53.27 52.40 51.12 48.89 49.18 50.76 48.94 48.04 43.31 42.88 45.47 46.62 45.57 47.50 46.64 46.03 45.44 45.81 46.31 45.59 50.26 50.36 51.57 50.62 49.56 50.44 51.76 52.81 53.35 53.53 53.78 54.04 54.43 54.69 54.93
52.45 51.83 51.50 50.92 50.57 50.96 51.11 51.34 50.87 51.23 51.11 50.59 49.80 49.26 48.44 47.67 45.59 42.53 41.03 44.83 45.11 44.89 45.64 45.59 44.49 44.37 44.59 44.86 45.00 49.28 51.87 50.01 48.58 49.03 50.23 51.41 52.74 53.40 53.49 53.60 53.97 54.20 54.40
52.53 52.66 52.63 52.09 51.90 51.08 50.64 50.70 50.32 49.72 49.60 49.87 50.01 49.97 49.00 47.11 44.51 43.20 42.42 42.87 42.75 44.55 43.89 44.73 45.18 45.03 45.38 44.78 48.82 52.21 51.83 49.71 48.53 48.78 49.89 50.73 51.78 52.62 53.18 53.48 53.71 53.95 54.26
51.82 51.97 52.49 52.12 51.94 52.01 51.88 51.65 50.95 50.72 50.65 50.05 50.07 50.21 50.02 49.36 47.89 46.00 44.39 42.67 41.99 43.70 44.09 44.68 44.68 44.89 46.94 44.60 45.27 51.60 51.58 49.97 48.66 49.52 49.99 50.53 51.00 51.28 51.87 52.66 52.94 53.25 53.64
51.81 52.15 52.38 52.37 52.32 52.30 52.19 52.01 51.53 50.90 50.75 50.23 49.82 49.18 48.12 47.04 46.57 46.99 45.62 42.33 40.02 39.68 40.40 39.50 43.18 43.15 42.47 43.49 45.85 50.95 44.73 49.46 49.07 49.21 49.86 50.37 50.74 51.21 51.50 52.03 52.35 52.55 52.76
52.28 52.01 51.79 51.97 52.26 52.14 51.88 51.31 50.30 49.69 49.71 49.18 48.49 48.89 48.31 46.17 44.79 43.10 41.96 41.90 39.99 36.91 37.72 40.43 41.32 42.85 42.41 42.53 44.99 45.31 41.19 46.08 48.42 48.95 49.14 49.39 50.04 50.57 50.87 51.12 51.29 51.65 51.92
54.38 53.17 52.39 51.95 51.72 51.25 50.82 49.31 48.89 48.31 47.87 46.95 46.40 46.16 45.21 43.12 43.06 43.14 42.53 42.77 42.29 39.97 37.49 40.37 42.50 42.56 42.85 43.38 44.65 40.36 40.22 46.59 47.49 48.24 48.67 48.73 48.87 49.53 49.98 49.97 49.84 49.99 50.37
51.86 50.77 49.88 49.44 48.75 48.31 48.46 47.80 47.45 46.27 45.80 44.92 44.57 44.47 43.76 43.79 43.22 43.62 42.92 42.09 39.76 39.85 37.61 39.10 39.29 38.90 37.77 37.35 38.39 38.67 40.52 38.91 39.41 47.40 48.38 48.06 48.51 49.13 49.82 49.60 49.16 49.28 49.37
50.24 49.75 49.74 49.54 49.49 49.40 49.24 48.64 47.34 46.03 45.20 44.30 44.06 43.23 42.43 43.95 41.29 41.26 39.24 38.01 37.60 37.42 35.96 33.63 34.56 35.80 36.50 36.96 36.84 36.38 39.84 42.14 39.02 44.86 47.75 47.84 47.96 47.64 47.81 48.36 48.83 48.91 48.55
50.08 50.47 50.15 49.69 48.83 47.46 47.06 45.59 45.18 43.53 42.08 41.70 41.62 40.87 39.29 38.79 36.91 36.78 36.63 35.91 36.15 39.21 35.59 33.95 33.81 35.00 35.60 35.78 35.66 36.50 37.47 39.12 41.10 45.81 47.00 46.88 47.30 47.37 47.10 47.48 47.41 47.82 48.55
41.23 40.65 40.87 42.15 42.42 42.05 41.91 41.65 40.86 39.42 39.07 39.58 39.92 39.36 38.58 37.95 36.56 35.69 38.41 37.75 38.59 36.62 35.96 35.45 35.11 35.46 35.62 36.90 36.02 36.17 36.94 35.88 37.03 41.22 43.32 45.53 46.73 47.13 46.96 46.58 47.45 47.66 48.29
39.65 40.21 40.30 40.75 41.30 42.47 43.40 40.03 39.79 38.44 37.74 37.76 38.77 39.42 40.16 43.75 45.98 43.75 40.68 38.37 37.82 36.70 35.71 34.81 34.42 34.88 35.41 35.41 35.14 36.00 35.54 36.21 35.85 36.79 36.73 37.51 39.63 41.65 42.43 45.70 46.49 47.09 48.07
37.77 38.16 37.47 39.16 40.00 43.18 46.14 45.50 40.54 37.10 37.16 36.62 36.45 36.61 37.79 40.91 41.54 43.58 44.11 44.63 42.61 36.82 37.86 37.93 38.05 36.43 33.87 34.68 35.39 35.59 35.84 33.88 31.54 36.26 35.15 36.11 38.29 37.78 38.94 40.08 45.22 46.47 46.76
35.84 35.76 36.30 38.06 37.88 39.33 44.76 44.28 43.39 35.90 34.70 33.70 33.64 34.03 36.44 38.62 38.12 36.18 40.78 42.22 41.34 43.31 43.02 37.76 33.38 33.13 33.18 34.45 34.02 32.45 31.84 31.75 32.94 35.32 36.24 35.72 38.90 36.39 38.56 41.37 45.25 46.08 46.69
34.80 34.65 34.52 36.06 36.76 39.73 43.01 42.82 41.84 34.36 33.51 33.63 33.92 34.41 34.04 33.92 35.52 38.47 36.46 36.11 36.39 36.55 37.82 38.70 36.53 36.29 36.07 36.67 37.68 40.05 39.57 38.46 37.84 39.01 40.68 36.46 38.92 37.82 39.00 39.44 44.43 45.94 46.37
33.11 32.84 33.29 33.16 34.25 34.68 42.12 42.09 37.79 34.13 33.28 32.69 34.26 33.95 34.10 33.17 39.56 41.64 36.47 36.64 35.29 35.65 40.95 43.49 43.65 44.12 44.69 44.73 43.28 39.72 37.64 37.86 37.27 37.50 37.48 38.52 36.56 38.15 39.65 39.15 40.03 44.28 46.01
33.49 33.75 32.54 32.19 38.32 32.53 41.29 40.78 36.87 33.72 31.11 32.56 32.71 33.77 39.10 37.53 41.02 41.73 39.09 37.78 36.61 36.84 36.74 38.25 39.99 40.83 40.46 38.80 42.86 38.55 37.87 36.34 36.66 34.27 36.01 36.84 38.24 38.17 36.71 36.06 36.87 37.63 37.17

GFSMA_sfc_wetblb_129.txt.gz
Wetbulb
62.20 60.49 58.94 57.33 56.66 57.27 56.74 55.40 55.05 56.25 55.88 56.08 56.63 56.86 56.47 56.88 57.76 59.14 60.61 66.06 65.75 65.24 65.23 65.31 64.95 64.58 64.17 63.84 63.49 63.36 63.04 62.92 62.83 62.78 62.83 62.92 63.20 63.47 63.42 63.81 64.94 65.96 66.78
61.71 59.80 57.55 56.07 55.42 55.21 53.31 53.19 56.75 56.24 55.47 55.91 56.09 56.19 55.63 56.01 56.78 57.70 58.67 61.71 65.73 65.16 64.55 64.59 64.21 64.00 63.72 63.27 62.80 62.44 62.00 61.86 61.79 61.61 61.58 61.63 61.77 61.96 62.32 62.55 62.75 63.01 64.22
61.57 59.26 56.27 54.59 53.13 50.66 51.31 50.77 53.34 54.83 54.72 55.64 53.91 54.67 55.14 54.52 54.75 54.55 55.25 56.28 59.03 64.91 64.41 63.49 63.33 63.25 63.05 62.64 62.30 61.75 61.29 61.02 60.73 60.60 60.51 60.51 60.81 60.78 60.69 60.92 61.43 61.79 62.18
62.19 58.91 56.21 53.75 50.72 50.35 48.76 51.98 54.02 53.27 52.15 53.88 52.62 53.69 53.42 53.34 52.68 52.85 53.34 53.73 54.21 55.30 61.91 63.87 62.56 62.53 62.33 62.03 61.65 61.10 60.56 60.19 60.02 59.89 59.82 59.85 59.95 60.05 60.16 60.11 59.99 60.22 60.84
61.90 59.40 55.96 52.10 49.12 48.78 48.48 52.13 49.08 53.21 51.60 51.27 52.48 51.72 51.86 51.80 51.75 53.14 51.77 52.57 54.18 53.28 53.82 62.82 63.32 62.37 61.51 61.36 61.16 60.64 59.83 59.27 59.05 58.88 58.87 58.79 58.77 58.93 58.92 58.88 59.25 59.60 59.20
61.04 58.04 53.04 50.10 48.90 48.03 47.62 48.08 48.88 47.48 51.06 51.77 53.44 49.53 48.70 49.42 50.05 50.25 50.39 52.23 51.60 52.23 51.86 51.50 51.94 55.88 61.03 60.19 60.26 60.11 59.37 58.55 58.13 57.90 57.85 57.71 57.83 57.81 57.88 57.75 57.94 58.28 58.91
59.48 55.26 50.22 48.52 48.43 48.82 48.24 48.24 46.84 48.23 45.83 47.25 47.48 46.08 45.90 45.73 46.46 47.35 47.40 48.39 47.95 49.07 49.93 49.48 50.24 50.60 53.30 58.43 58.33 58.12 58.05 57.83 57.39 56.90 56.77 56.94 56.72 56.66 56.74 56.66 56.73 56.99 57.12
56.33 55.08 49.58 48.34 48.43 47.71 47.66 47.79 48.02 46.43 45.67 45.66 45.02 44.46 43.10 45.21 44.39 45.41 45.18 47.19 46.56 46.09 47.78 47.96 48.56 49.00 48.29 48.01 51.06 55.39 55.29 55.48 55.59 55.46 55.32 55.56 55.94 56.20 56.09 56.12 56.10 56.31 56.55
54.32 51.90 49.02 49.14 48.22 48.81 48.41 47.53 47.95 47.41 45.42 46.16 46.03 45.51 42.18 42.07 42.05 42.87 43.29 44.51 45.79 45.59 45.65 46.92 47.42 48.34 46.58 45.92 51.56 52.68 54.10 52.95 53.15 53.65 53.98 54.57 55.19 55.54 55.80 55.70 55.85 56.04 55.96
52.60 52.20 49.74 48.86 49.03 48.66 48.95 48.46 49.17 48.27 47.43 45.78 47.49 49.32 48.43 47.38 44.39 42.83 43.53 43.71 46.08 47.12 46.36 45.36 46.06 46.98 46.60 44.93 50.30 50.85 53.39 51.99 50.81 51.16 52.05 53.17 54.20 54.63 55.11 55.20 55.41 55.53 55.69
53.28 52.38 50.37 49.36 48.75 48.81 48.68 49.88 48.82 48.15 48.31 47.70 47.50 48.02 47.72 47.11 46.29 44.65 42.88 44.61 45.85 45.70 45.70 44.84 44.82 45.25 46.44 44.54 46.29 48.51 53.81 52.60 49.99 49.74 50.55 52.11 52.71 53.31 53.92 54.39 54.60 54.78 54.93
52.36 52.54 52.22 50.86 49.58 49.50 50.11 50.19 50.14 50.07 50.13 50.00 50.35 49.94 48.54 46.93 45.70 45.07 43.90 44.15 44.27 45.26 43.33 41.98 41.48 42.31 44.34 44.30 47.14 50.71 53.50 53.46 50.45 49.38 50.00 50.73 51.43 52.48 53.28 53.98 53.99 54.22 54.25
51.52 51.59 51.91 51.49 51.41 51.48 51.36 51.01 50.55 50.20 50.06 50.10 49.95 49.41 49.63 49.25 48.77 47.31 46.25 44.23 43.96 44.14 42.72 41.32 41.83 42.40 44.58 43.00 43.49 49.92 52.62 53.89 51.11 49.75 49.92 50.20 51.06 51.46 51.99 52.59 53.01 53.10 53.37
51.71 52.45 52.23 52.08 51.94 51.97 51.90 51.81 51.40 50.60 49.92 49.23 48.53 48.64 48.77 48.72 48.38 47.99 47.04 45.29 42.07 41.07 38.07 37.85 39.18 40.54 40.98 41.20 44.55 51.99 47.86 51.68 51.09 50.62 49.56 49.85 50.16 50.62 51.30 51.76 51.67 51.63 52.25
52.49 52.47 52.21 51.80 51.80 51.80 51.71 51.53 50.90 50.26 49.86 49.33 48.96 48.71 48.65 47.94 47.15 47.41 46.84 44.95 41.96 36.83 38.13 40.29 38.14 39.44 40.90 42.58 44.89 45.90 43.20 46.07 48.59 48.35 48.34 49.31 49.71 50.02 50.50 50.69 50.75 50.94 50.99
52.17 51.77 51.60 51.34 51.13 51.16 50.98 50.41 49.84 49.56 49.22 48.59 48.24 48.08 46.91 45.30 44.24 43.58 42.09 41.78 42.24 41.51 40.13 38.89 39.70 40.66 39.85 41.92 44.24 39.03 39.47 47.18 47.78 48.00 48.42 48.07 48.29 48.78 49.28 49.94 49.80 49.44 49.41
50.97 51.08 51.31 51.06 50.75 50.43 50.18 49.28 48.87 48.38 47.92 46.82 45.79 46.12 44.41 43.60 42.84 42.60 42.44 41.62 40.45 40.23 36.73 35.76 36.18 35.63 35.76 36.01 37.16 36.91 38.44 37.25 37.53 46.06 47.80 48.47 48.82 48.53 48.66 48.88 48.26 48.77 48.76
51.21 51.01 50.72 50.09 49.59 49.09 48.91 48.64 46.98 46.49 45.98 44.26 44.00 43.54 42.80 43.98 41.08 40.88 40.21 39.00 36.70 35.05 35.03 32.95 33.26 34.59 35.40 35.18 35.13 35.07 38.36 40.24 37.71 43.96 47.47 48.27 48.34 48.46 48.04 48.17 48.04 47.75 47.76
49.72 49.63 49.31 48.06 46.13 45.34 45.68 45.47 46.05 45.02 44.11 43.18 42.38 41.60 40.54 39.88 37.86 37.04 36.37 35.53 35.81 37.33 34.19 33.84 33.73 33.98 34.70 34.70 34.97 35.39 35.83 36.37 39.53 44.65 46.27 46.58 46.80 47.54 47.69 47.60 47.45 46.89 47.47
43.92 43.20 42.85 42.09 41.56 40.72 40.70 40.06 39.85 38.45 38.73 38.89 38.40 37.82 36.93 36.26 35.18 35.29 36.28 35.68 36.43 35.20 34.28 33.89 33.38 33.27 33.42 34.66 33.99 33.80 33.96 35.09 35.61 40.13 42.39 44.26 45.35 45.65 45.71 45.84 45.99 46.45 47.19
40.33 41.04 40.93 40.79 40.64 39.92 39.90 37.07 36.86 36.23 36.37 36.01 36.68 38.26 39.28 40.79 44.52 40.85 38.36 36.37 35.67 33.94 33.19 32.47 31.92 32.01 32.20 32.32 32.03 32.73 32.69 33.39 34.50 35.24 34.42 35.00 35.44 36.30 37.91 42.65 43.79 44.93 45.72
37.87 39.18 38.91 39.61 39.69 42.79 44.69 43.34 37.65 34.83 34.93 35.09 34.70 34.75 37.70 39.43 41.73 44.00 43.68 43.98 38.80 34.35 32.33 32.16 31.65 30.83 30.63 31.25 31.58 31.47 31.38 30.94 32.90 33.99 32.74 35.07 34.87 34.94 36.48 37.44 43.22 45.18 46.02
36.13 36.48 36.92 37.31 37.55 39.47 44.76 43.15 40.32 32.99 32.26 31.64 32.17 33.54 35.16 37.72 37.89 36.14 41.03 41.75 40.39 41.66 40.63 33.66 31.27 30.96 30.39 31.94 31.46 31.09 35.18 36.18 36.08 36.20 33.89 34.46 35.32 36.80 38.34 39.87 43.53 44.73 45.46
34.61 34.84 35.02 35.43 35.74 40.12 43.41 42.28 40.07 32.12 31.50 31.59 31.85 32.41 32.11 32.09 33.55 36.54 34.66 33.97 33.84 34.34 35.83 36.78 35.05 37.03 36.78 37.20 37.18 39.02 38.78 37.47 34.66 35.39 35.67 34.83 36.22 36.43 37.69 37.83 42.69 43.79 44.39
31.97 33.32 34.65 33.90 33.23 35.05 42.65 40.95 35.29 31.32 31.28 31.16 32.43 32.57 32.68 32.10 38.57 41.60 35.28 34.71 37.02 37.93 40.73 42.65 42.30 41.98 41.77 41.08 39.86 36.03 32.60 33.70 32.61 34.33 34.29 36.12 37.20 36.57 35.30 36.39 37.08 42.09 42.61
31.40 33.23 31.38 31.24 37.56 33.21 41.77 40.61 35.14 32.00 30.48 31.74 31.97 32.98 38.54 37.64 41.49 42.84 40.67 38.65 35.80 35.25 36.69 34.53 33.39 33.92 35.00 34.23 39.11 33.88 32.85 32.76 32.40 32.02 38.00 34.66 36.25 36.56 34.61 38.06 35.68 37.63 37.87

GFSMA_sfc_wetblb_132.txt.gz
Wetbulb
63.22 61.57 58.55 57.10 57.35 58.30 57.08 55.32 55.48 56.19 56.00 56.27 56.75 56.93 56.75 57.32 58.22 59.39 61.04 66.21 66.46 65.60 65.52 65.44 65.10 64.73 64.36 63.84 63.48 63.31 63.05 62.91 62.96 63.05 62.94 62.87 63.04 63.19 63.32 63.52 63.72 64.22 65.38
62.44 60.74 57.41 56.22 56.35 56.22 54.34 55.40 55.95 55.92 55.17 56.12 56.17 56.44 55.96 56.53 57.15 58.05 59.17 62.13 65.80 65.49 64.88 64.84 64.57 64.27 63.88 63.47 62.92 62.54 62.26 62.01 62.00 61.95 62.09 62.18 62.16 62.07 61.88 62.03 62.49 62.85 63.16
61.77 59.61 56.97 55.80 54.46 52.57 52.40 54.73 54.17 54.93 55.00 55.59 53.95 54.84 55.48 55.02 55.21 55.38 56.32 57.33 59.86 64.96 64.68 63.86 63.76 63.71 63.44 63.00 62.51 61.96 61.67 61.50 61.47 61.42 61.37 61.31 61.21 61.16 61.18 61.35 61.21 61.21 61.56
61.12 58.30 56.20 55.09 51.36 50.75 53.35 55.21 55.43 53.43 53.77 54.11 52.94 53.75 53.33 53.20 52.92 53.38 54.18 54.48 54.93 56.45 62.62 64.18 63.02 63.08 62.77 62.58 61.91 61.28 60.93 60.86 60.81 60.58 60.40 60.40 60.27 60.12 59.94 59.94 60.37 60.69 60.48
61.18 58.13 55.97 52.95 50.59 49.44 53.29 54.83 52.72 54.88 53.43 52.53 52.99 51.72 51.21 51.25 51.57 53.14 52.28 53.74 54.13 53.84 55.66 63.43 63.62 62.83 61.98 61.95 61.47 60.88 60.23 60.08 59.90 59.68 59.40 59.45 59.27 59.22 59.03 58.98 59.09 59.21 59.59
61.13 57.79 54.48 51.11 49.79 49.37 50.54 52.46 52.35 49.87 53.13 52.85 53.29 48.69 48.28 48.79 50.12 50.26 50.65 52.25 51.80 51.80 51.76 52.29 53.03 57.03 61.29 60.66 60.48 60.43 59.72 59.25 58.73 58.61 58.48 58.50 58.48 58.38 58.40 58.22 58.26 58.44 58.40
61.23 55.73 53.39 49.16 48.43 49.57 51.04 52.05 49.91 50.85 47.34 48.34 47.40 45.98 45.64 46.12 47.44 47.72 47.63 48.41 49.11 49.63 49.85 50.71 50.93 51.73 54.10 58.99 58.63 58.19 58.50 58.46 57.96 57.43 57.41 57.57 57.54 57.65 57.79 57.54 57.53 57.58 57.62
60.61 55.57 51.82 48.98 47.81 47.48 48.45 50.03 50.40 46.58 45.41 47.12 46.62 44.86 44.06 45.56 44.98 47.22 47.40 47.44 46.26 46.02 48.59 48.39 49.37 50.02 49.56 49.73 52.67 55.85 56.22 56.34 56.57 56.30 56.18 56.49 56.92 56.89 56.77 56.85 56.92 57.05 57.07
55.73 56.30 51.81 50.15 47.84 48.29 48.87 48.37 49.27 47.95 46.39 45.63 46.61 45.28 40.50 41.26 43.89 45.51 45.70 45.92 46.21 45.37 45.47 47.19 47.58 48.93 47.92 47.26 51.96 52.43 55.24 53.76 54.02 54.42 54.78 55.42 55.80 55.98 56.12 56.21 56.36 56.61 56.58
55.25 53.52 51.18 47.82 47.11 46.99 46.65 47.90 49.04 47.97 49.29 47.48 46.66 47.78 45.60 46.56 44.27 43.38 45.78 45.77 46.44 47.23 46.44 46.81 47.91 47.54 47.73 45.34 50.39 50.81 52.95 52.04 51.70 52.13 52.93 53.78 54.24 54.74 55.08 55.43 55.49 55.59 55.66
54.20 52.88 51.67 48.98 46.97 46.59 46.63 47.67 47.07 46.99 46.90 46.72 46.95 47.22 47.20 46.66 46.23 45.28 43.01 44.19 44.84 44.38 46.38 46.97 45.72 45.47 46.55 45.91 45.87 48.58 53.31 52.53 50.40 50.28 50.56 52.22 52.76 53.68 54.43 54.94 54.76 54.71 54.67
52.47 52.77 52.03 50.65 49.20 48.87 47.54 47.29 47.76 48.87 49.77 49.84 49.71 49.15 48.08 46.64 45.75 45.28 43.74 44.00 44.75 45.79 45.12 44.17 43.16 42.87 44.16 45.43 46.88 50.53 52.29 54.20 51.63 49.92 49.86 50.88 51.44 52.54 53.22 53.88 53.99 54.14 54.12
51.52 51.57 51.92 51.34 50.35 50.12 49.67 48.63 50.04 50.38 50.64 50.44 50.19 49.50 49.81 49.24 48.81 47.51 46.32 44.52 44.28 44.64 43.89 42.40 41.46 42.30 44.39 43.24 43.93 49.47 51.55 54.07 52.98 50.96 50.70 50.73 50.95 51.40 51.91 52.43 52.93 53.26 53.22
51.81 52.28 52.18 51.95 51.76 51.21 51.20 51.31 50.59 49.76 49.43 49.29 48.85 48.94 48.79 48.75 48.94 48.24 47.11 45.48 43.27 42.42 41.06 39.57 38.96 39.93 40.80 42.83 45.31 52.21 47.65 51.31 51.28 51.65 51.11 49.93 49.87 50.40 50.74 51.43 51.85 51.82 51.72
52.59 52.36 52.20 51.72 51.67 51.59 51.52 51.26 50.47 49.71 49.63 49.24 48.67 48.62 48.41 48.21 48.08 48.33 47.79 46.34 44.88 40.99 40.74 39.20 39.83 42.08 41.96 42.79 47.50 44.45 43.88 47.37 48.83 48.75 48.60 49.09 49.16 49.24 49.81 50.22 50.58 50.93 51.12
52.62 52.11 51.63 51.34 51.14 51.07 50.76 50.45 49.80 49.66 49.33 48.55 48.44 48.29 47.47 46.58 45.81 44.90 44.41 43.27 43.06 42.51 40.83 40.28 41.23 40.48 39.96 41.93 44.14 38.83 39.28 47.06 47.55 49.23 49.10 48.67 48.93 49.66 50.10 49.98 49.75 49.87 49.53
51.81 51.52 51.39 51.06 50.69 50.33 50.06 49.49 49.21 48.84 48.64 47.51 46.47 47.20 44.72 44.08 42.94 42.71 42.34 41.69 40.56 40.72 39.42 38.25 37.77 35.81 36.02 36.96 37.78 37.58 39.15 38.18 38.53 45.69 47.72 48.31 48.69 49.10 49.55 49.49 49.29 48.95 48.86
51.23 51.15 50.99 50.59 50.15 49.93 49.73 49.23 48.32 47.68 47.09 44.77 44.98 44.36 43.06 44.00 41.41 41.18 40.57 39.23 38.57 37.71 37.11 33.08 33.17 34.46 34.91 35.44 35.83 36.35 38.57 40.54 38.67 44.00 47.45 47.85 47.91 47.39 47.45 48.40 48.59 48.52 48.27
49.52 49.28 48.75 46.80 45.54 45.91 45.55 45.37 45.09 44.27 43.20 42.34 42.06 42.26 41.32 40.38 38.90 38.81 38.21 37.76 35.95 36.78 34.11 33.51 33.10 34.07 34.81 35.35 35.99 36.45 36.94 36.75 39.49 43.83 45.01 45.84 45.92 46.16 46.59 46.73 46.80 46.62 46.72
44.19 43.09 42.63 42.14 41.69 41.12 40.94 40.93 40.77 40.25 39.88 39.78 39.96 39.83 39.35 38.99 37.80 36.23 36.18 35.48 36.06 35.15 34.25 33.83 33.34 33.52 34.11 35.23 34.65 34.19 33.21 34.81 35.13 38.97 41.66 43.32 44.96 44.93 45.30 45.68 45.98 45.72 45.66
41.75 41.82 41.42 41.16 41.26 41.18 39.98 38.39 37.98 37.70 36.93 36.28 37.34 38.75 37.54 40.16 43.33 40.89 37.98 36.16 34.98 33.70 33.14 32.61 32.27 32.52 32.69 32.78 32.23 32.74 32.48 32.84 33.39 34.68 34.56 35.45 36.20 36.99 37.59 42.36 43.00 44.13 45.04
38.65 39.41 38.98 39.64 40.03 42.06 45.22 43.55 37.39 34.61 35.09 34.92 35.06 36.07 36.95 39.32 43.20 45.63 45.55 43.49 38.62 34.13 32.68 32.60 32.23 31.52 30.70 30.80 31.33 31.32 31.29 31.07 34.40 35.89 33.63 35.83 36.16 36.40 37.14 38.11 43.17 44.95 45.17
36.11 36.11 36.60 37.33 38.23 39.71 44.55 43.30 40.49 32.56 32.10 31.99 32.33 33.02 34.58 37.68 37.45 35.66 42.18 42.78 40.51 41.58 40.11 33.70 31.39 30.32 30.66 32.39 32.63 32.97 36.43 37.48 36.86 38.69 34.93 34.96 35.89 35.46 37.82 39.90 43.02 44.25 44.66
34.06 34.12 34.40 35.12 36.88 39.84 43.48 42.50 40.09 31.16 30.58 30.89 31.61 31.45 31.39 31.56 32.97 35.62 34.17 33.63 33.55 33.68 35.79 37.14 34.14 34.82 34.81 38.61 37.98 38.54 38.31 37.02 36.50 34.72 34.95 32.59 36.01 35.79 38.88 37.61 42.14 43.03 43.59
32.87 33.03 33.19 33.31 34.31 36.23 42.08 40.64 34.69 30.57 30.41 30.53 31.94 32.24 32.60 31.78 38.29 42.06 34.74 33.56 33.86 35.74 40.13 41.73 40.78 40.91 40.99 40.32 39.29 34.08 30.93 31.69 31.33 31.82 33.76 35.75 37.03 35.79 36.51 36.06 37.33 41.83 42.15
31.94 33.42 31.76 31.77 38.77 33.61 41.62 40.04 34.66 31.61 30.21 31.21 31.36 32.52 38.76 37.31 41.83 43.00 40.21 38.57 35.24 34.21 34.85 34.21 31.85 32.58 33.99 33.78 38.05 32.48 30.94 29.45 29.30 28.71 34.71 32.34 32.04 33.66 31.50 35.42 36.18 36.62 36.65

GFSMA_sfc_wetblb_135.txt.gz
Wetbulb
66.92 65.43 63.35 65.27 65.65 66.32 64.26 62.48 62.71 62.85 63.20 63.66 64.10 64.08 64.20 64.60 64.88 64.86 64.98 66.65 66.84 65.93 65.83 65.71 65.26 64.79 64.40 64.09 63.80 63.62 63.52 63.53 63.64 63.61 63.51 63.42 63.35 63.21 63.15 63.30 63.56 64.07 64.85
66.84 63.99 62.10 63.77 63.64 64.98 62.36 61.98 61.95 62.14 62.36 63.18 63.02 63.51 63.55 63.93 64.25 64.42 64.44 64.97 66.15 65.83 65.23 65.10 64.77 64.48 64.22 63.76 63.42 63.17 62.98 62.98 62.91 62.77 62.47 62.36 62.41 62.55 62.40 62.28 62.22 62.40 62.89
66.08 63.04 61.68 62.31 62.23 63.47 61.21 61.25 61.32 61.70 61.65 62.06 61.94 62.55 62.86 63.06 63.23 63.19 63.47 64.00 64.14 65.39 65.15 64.14 64.13 63.95 63.65 63.33 62.90 62.67 62.43 62.26 62.09 62.05 61.97 61.74 61.55 61.43 61.22 61.33 61.60 61.64 61.61
65.24 61.96 60.86 60.90 59.87 59.92 60.86 60.67 60.75 60.62 60.59 60.75 60.46 60.61 60.66 61.08 61.42 61.33 61.78 62.20 62.85 62.85 64.27 64.63 63.40 63.35 63.04 62.65 62.27 61.87 61.56 61.48 61.30 61.28 60.98 60.95 60.78 60.70 60.62 60.62 60.44 60.41 60.78
63.85 61.34 60.36 58.97 57.62 58.60 60.14 60.02 60.00 60.27 59.42 59.41 58.89 58.84 58.97 58.98 59.41 59.57 60.25 60.76 61.33 62.13 62.48 63.95 64.05 63.27 62.32 62.12 61.71 61.38 60.98 60.66 60.50 60.39 60.17 60.05 60.05 59.96 59.81 59.81 59.96 59.96 59.87
62.83 60.48 59.19 56.46 55.89 58.15 58.81 59.76 59.34 60.07 59.72 58.89 57.37 56.14 56.72 57.00 58.18 58.54 58.87 58.31 58.92 59.49 60.31 60.82 61.35 61.56 61.87 60.93 60.80 60.80 60.28 59.86 59.53 59.47 59.39 59.33 59.40 59.42 59.40 59.25 59.29 59.22 59.12
61.99 59.30 57.90 54.80 55.48 57.63 58.58 59.64 58.38 57.67 56.52 56.96 55.73 54.63 54.41 55.64 56.63 56.80 57.41 57.91 57.57 57.87 58.62 59.34 60.00 60.45 59.78 59.56 58.84 59.25 59.63 59.57 58.86 58.42 58.47 58.61 58.52 58.53 58.66 58.68 58.55 58.62 58.44
59.37 57.55 55.37 54.12 53.79 56.28 57.82 57.58 57.56 57.10 55.71 57.23 55.30 54.60 52.14 53.98 55.13 55.64 56.04 55.16 54.47 55.17 56.33 56.98 58.20 58.66 58.60 58.00 57.50 56.57 57.25 57.37 57.25 57.11 57.28 57.50 57.60 57.72 57.72 57.79 57.90 58.00 57.92
61.10 56.06 55.32 53.18 54.73 56.27 56.79 57.47 57.92 57.56 55.02 54.20 55.90 54.16 50.07 49.62 52.49 53.25 53.33 53.42 53.88 52.22 52.94 53.08 54.18 56.25 56.82 56.45 56.35 55.27 55.55 54.57 55.00 55.27 55.58 56.00 56.37 56.69 56.71 56.79 57.11 56.96 56.96
56.92 56.49 51.97 52.62 51.22 54.80 56.04 56.83 57.60 57.62 57.13 54.56 53.44 53.01 53.24 53.29 50.73 47.12 49.75 49.86 53.34 51.32 51.19 53.60 54.26 54.65 54.01 55.29 53.21 52.28 53.32 52.36 52.28 52.83 53.35 54.11 54.62 55.14 55.84 56.13 55.94 55.92 55.87
55.75 54.39 51.58 50.18 50.63 53.31 55.07 56.65 56.74 56.33 57.92 56.26 55.01 52.29 51.31 50.54 51.44 49.42 45.94 46.54 47.29 49.30 49.77 52.01 53.74 52.38 53.77 54.12 53.56 52.82 53.27 53.20 50.96 50.86 50.92 52.30 52.79 54.12 54.73 55.08 55.00 54.67 54.75
54.90 54.43 53.42 52.63 50.59 52.50 53.10 54.65 56.10 55.42 55.66 56.04 54.71 52.66 51.47 51.43 50.49 50.72 48.45 46.29 47.26 48.46 47.59 47.28 46.12 47.35 49.87 52.59 51.19 50.79 52.64 54.41 53.28 51.28 50.19 51.22 52.13 52.92 53.43 53.72 53.96 53.95 54.04
53.77 53.09 53.07 52.29 53.08 53.49 53.03 53.36 53.73 54.19 55.01 54.66 53.15 53.81 54.04 53.30 52.56 50.15 48.58 46.51 47.24 47.38 46.04 45.40 45.73 46.86 48.23 49.77 50.57 50.00 51.14 53.12 54.92 52.26 51.10 51.52 51.30 51.45 51.83 52.34 52.57 52.80 53.12
52.70 53.52 53.01 52.31 52.09 52.66 53.39 53.89 54.33 53.82 54.18 51.94 53.32 53.44 53.92 53.96 53.88 53.04 49.68 48.00 46.41 45.54 44.33 43.89 46.20 45.21 48.47 49.49 50.36 51.85 51.25 51.23 51.41 51.01 51.16 50.22 50.10 50.35 50.59 51.01 51.35 51.42 51.96
53.33 52.81 52.39 51.91 51.93 51.77 51.66 53.28 52.67 51.51 51.89 50.53 50.01 50.44 51.54 50.52 50.44 51.23 51.95 49.54 47.28 43.93 44.31 41.91 43.17 46.02 45.80 47.18 47.56 45.51 46.65 49.97 50.60 49.75 49.33 49.25 49.56 49.70 50.16 51.00 51.35 51.27 50.99
52.37 52.04 51.81 51.61 51.46 51.40 51.22 50.88 50.32 50.15 49.76 49.54 49.52 49.50 49.17 49.15 49.06 48.74 47.83 47.05 46.91 47.08 43.71 42.65 43.33 41.88 42.64 43.49 45.86 46.05 46.32 46.11 46.88 48.05 48.32 48.71 49.16 49.66 50.09 50.38 50.54 50.42 50.61
52.40 51.87 51.78 51.54 51.21 50.80 50.79 50.50 50.14 50.05 49.77 48.74 48.47 49.15 47.72 45.88 44.74 44.56 44.63 44.17 42.93 43.48 42.69 39.61 41.31 41.83 42.90 44.84 45.78 46.21 45.95 46.10 45.94 46.47 48.06 48.36 48.61 48.84 49.07 48.77 48.57 49.27 49.92
52.06 51.67 51.41 50.99 50.66 50.68 50.95 50.67 49.94 49.55 49.44 47.51 47.19 45.81 44.46 44.43 42.62 42.82 42.08 40.51 40.44 40.24 41.38 39.23 39.13 41.80 43.83 43.65 43.55 43.93 43.44 43.96 43.78 44.26 46.50 46.99 46.99 47.23 47.10 47.13 47.44 47.88 48.11
50.92 50.83 49.80 48.36 48.11 47.82 47.29 47.12 47.19 46.31 45.42 45.15 45.57 44.79 43.19 42.16 40.58 40.57 41.05 40.69 40.36 40.46 40.52 41.22 41.60 42.20 42.08 42.64 42.21 42.54 42.29 42.17 42.80 44.17 44.83 45.30 45.67 46.11 46.37 46.35 46.50 46.71 46.82
45.38 44.43 43.89 42.98 42.46 42.26 42.80 43.13 42.61 42.03 42.53 42.25 41.96 42.55 42.76 42.52 40.42 40.61 40.52 40.40 41.08 41.00 41.13 40.56 39.62 40.17 40.77 41.66 41.07 39.28 38.89 41.02 40.64 42.41 43.23 43.03 44.57 44.66 45.00 44.93 45.14 45.15 45.39
43.75 43.37 42.73 42.57 42.50 41.69 41.05 40.54 41.02 41.12 41.43 41.55 42.05 41.36 41.51 43.33 44.56 43.92 42.90 42.08 41.81 40.57 40.02 39.43 39.52 38.88 38.99 38.42 37.62 39.45 38.07 39.74 41.48 43.01 41.88 42.83 42.84 43.05 43.42 43.63 43.51 44.04 45.30
42.81 43.08 42.93 43.36 43.73 44.24 45.60 43.78 41.43 40.32 40.33 41.26 40.92 41.31 42.36 44.83 47.00 47.11 45.62 43.67 42.60 41.03 39.78 40.06 39.45 38.40 37.67 38.20 39.65 39.46 39.04 38.79 36.74 43.62 40.43 40.05 41.84 40.88 42.09 42.96 43.26 44.36 44.71
42.44 42.28 42.51 42.98 43.03 43.75 44.98 43.80 41.06 38.71 38.41 38.94 39.45 40.13 39.72 40.94 41.62 42.69 45.50 44.12 42.48 42.25 41.66 41.07 38.74 38.42 37.51 40.06 39.52 39.22 39.17 38.76 37.87 40.00 39.13 36.63 39.91 38.40 42.10 42.53 42.80 43.74 44.17
41.08 41.40 41.78 42.32 42.47 42.69 43.83 42.77 40.23 37.84 38.05 38.00 38.20 38.51 38.66 38.72 39.77 40.80 40.35 39.96 39.79 40.23 41.41 41.48 39.98 39.53 40.07 40.74 40.70 39.76 39.18 38.20 38.57 38.94 39.62 34.27 39.02 38.35 40.01 41.36 41.72 42.72 43.00
39.58 39.86 41.13 41.30 41.04 41.39 42.26 40.88 38.05 37.51 37.12 37.08 37.76 39.10 39.03 39.02 39.48 42.14 40.06 39.35 39.10 39.84 41.30 41.48 40.47 39.88 39.61 39.38 40.15 39.08 36.64 35.11 34.13 35.48 38.48 36.62 36.83 36.65 38.13 39.12 41.63 41.21 41.36
38.54 38.53 38.39 40.08 42.00 40.80 41.46 40.34 38.00 37.69 37.02 37.11 37.64 37.99 39.67 41.05 41.98 43.00 40.77 39.46 38.10 37.05 38.06 37.69 37.71 37.46 37.07 37.18 37.15 37.09 36.49 33.48 32.23 32.56 38.21 34.89 34.72 34.11 32.37 38.35 39.19 40.35 40.32